User: anonymous   Login
Location: Cranbrook Institute of Science
(42.5830°N, 83.2450°W)
Time: 15:22:31
(UTC-04:00)
Language:

ATLAS 5 CENTAUR R/B - Orbit

View from above orbital plane
View from above orbital plane
View from above satellite
View from above satellite

Ground track
Ground track

The orbit data is extracted from the following two-line orbital elements,

1 31702U 07027B   17177.89969234 0.00000000  00000-0  00000-0 0    05
2 31702  63.3642 194.5579 0275315   4.7051 355.2948 14.18566846    04
Epoch (UTC): 26 June 2017 21:35:33
Eccentricity: 0.0275315
inclination: 63.3642°
perigee height: 632 km
apogee height: 1028 km
right ascension of ascending node: 194.5579°
argument of perigee: 4.7051°
revolutions per day: 14.18566846
mean anomaly at epoch: 355.2948°
orbit number at epoch: 0

The dashed part of the orbit path shows where the satellite is in the earth's shadow,  

DLR